Regional Weather Roundup
Issued by NWS

Home | Current Version | Previous Version | Text Only | Print | Product List | Glossary On
Versions: 1 2 3 4 5 6 7 8 9 10 11 12 13 14 15 16 17 18 19 20 21 22 23 24 25 26 27 28 29 30 31 32 33 34 35 36 37 38 39 40 41 42 43 44 45 46 47 48 49 50
000
ASUS43 KLSX 300610
RWRMO

WEATHER SUMMARY FOR MISSOURI
NATIONAL WEATHER SERVICE SPRINGFIELD MO
100 AM CDT SAT APR 30 2016

NOTE: "FAIR" INDICATES FEW OR NO CLOUDS BELOW 12,000 FEET WITH NO
       SIGNIFICANT WEATHER AND/OR OBSTRUCTIONS TO VISIBILITY.
       CURRENT SKY AND/OR WEATHER CONDITIONS ARE NOT AVAILABLE FOR
       CHILLICOTHE AND FARMINGTON.

MOZ001>031-035>038-043-044-053-054-300700-
...NORTHERN AND WESTERN MISSOURI...

CITY           SKY/WX    TMP DP  RH WIND       PRES   REMARKS
KANSAS CTY INT CLOUDY    52  50  93 NE15      29.73F FOG
6HR MIN TEMP:  51; 6HR MAX TEMP:  52; 6HR PCP:  0.11;

KANSAS C DTWN  CLOUDY    54  52  93 E13       29.72F
6HR MIN TEMP:  53; 6HR MAX TEMP:  54; 6HR PCP:  0.02;

LEE`S SUMMIT   CLOUDY    56  54  93 E10       29.72F
6HR MIN TEMP:  53; 6HR MAX TEMP:  56; 6HR PCP:  0.04;

ST JOSEPH      LGT RAIN  50  48  93 E16       29.75F FOG
6HR MIN TEMP:  50; 6HR MAX TEMP:  51; 6HR PCP:  0.32;

CHILLICOTHE      N/A     53  49  86 E12G18    29.86F
6HR MIN TEMP:  51; 6HR MAX TEMP:  53; 6HR PCP:  0.11;

KIRKSVILLE     LGT RAIN  50  46  86 NE13      29.90F
6HR MIN TEMP:  49; 6HR MAX TEMP:  52; 6HR PCP:  0.02;


$$
MOZ066>068-077>081-088>096-101>105-300700-
...SOUTHWEST MISSOURI...

CITY           SKY/WX    TMP DP  RH WIND       PRES   REMARKS
SPRINGFIELD    RAIN      61  58  90 E9        29.76F
6HR MIN TEMP:  59; 6HR MAX TEMP:  61; 6HR PCP:  0.74;

JOPLIN         CLOUDY    60  59  96 SE8       29.70R
6HR MIN TEMP:  58; 6HR MAX TEMP:  60; 6HR PCP:  1.38;


$$
MOZ032>034-039>042-045>050-055>058-069>072-300700-
...CENTRAL MISSOURI...

CITY           SKY/WX    TMP DP  RH WIND       PRES   REMARKS
COLUMBIA       RAIN      57  56  96 SE14      29.83F FOG
6HR MIN TEMP:  57; 6HR MAX TEMP:  62; 6HR PCP:  0.22;

JEFFERSON CITY LGT RAIN  58  56  93 SE14      29.86F
6HR MIN TEMP:  57; 6HR MAX TEMP:  63; 6HR PCP:  0.46;

ROLLA          CLOUDY    56  55  97 E15       29.86F
6HR MIN TEMP:  56; 6HR MAX TEMP:  59; 6HR PCP:  1.00;

SEDALIA        LGT RAIN  58  56  93 SE17G30   29.80F
6HR MIN TEMP:  57; 6HR MAX TEMP:  60; 6HR PCP:  0.33;

WHITEMAN AFB   LGT RAIN  56  56 100 SE15G22   29.74F
WARRENSBURG    LGT RAIN  55  54  94 E32G41    29.66F
OSAGE BEACH    CLOUDY    57  48  72 E9        29.84F

$$
MOZ051-052-059>065-300700-
...EAST CENTRAL MISSOURI...

CITY           SKY/WX    TMP DP  RH WIND       PRES   REMARKS
ST LOUIS INTL  TSTM      59  55  88 SE8       29.92F FOG
6HR MIN TEMP:  59; 6HR MAX TEMP:  64; 6HR PCP:  0.36;

SPIRIT OF STL  TSTM      57  57 100 E6        29.90F FOG
6HR MIN TEMP:  58; 6HR MAX TEMP:  63; 6HR PCP:  0.10;

ST CHARLES     RAIN      58  57  97 SE13      29.91F FOG
6HR MIN TEMP:  58; 6HR MAX TEMP:  62; 6HR PCP:  0.24;


$$
MOZ072>076-082>087-097>100-106>115-300700-
...SOUTH CENTRAL AND SOUTHEAST MISSOURI...

CITY           SKY/WX    TMP DP  RH WIND       PRES   REMARKS
CAPE GIRARDEAU CLOUDY    61  57  87 E6        29.91R
6HR MIN TEMP:  60; 6HR MAX TEMP:  61; 6HR PCP: TRACE;

FARMINGTON     CLOUDY    59  55  87 E6        29.91F
6HR MIN TEMP:  58; 6HR MAX TEMP:  61; 6HR PCP:  0.01;

POPLAR BLUFF   CLOUDY    61  58  90 CALM      29.88F
6HR MIN TEMP:  60; 6HR MAX TEMP:  63;

WEST PLAINS    LGT RAIN  60  58  92 SE8       29.85F FOG
6HR MIN TEMP:  59; 6HR MAX TEMP:  60; 6HR PCP:  0.01;


$$



USA.gov is the U.S. government's official web portal to all federal, state and local government web resources and services.